Location: Hopkins Observatory
(42.6965°N, 73.1843°W)
Time: 04:31:32
(UTC-04:00)

Amateur Radio Satellites - All Passes

Search period start: 28 May 2017 04:01
Search period end: 29 May 2017 04:01
Location: Hopkins Observatory, 42.6965°N, 73.1843°W

Satellite Date Start Highest point End Downlink Frequencies (MHz)
Time Altitude Azimuth
Oscar 19 28 May 04:03:01 04:06:11 17° 300° (WNW) 04:09:20 437.125/150
BEESAT 28 May 04:06:09 04:09:51 22° 266° (W) 04:13:36 436.000
O/OREOS (USA 219) 28 May 04:12:42 04:17:18 78° 292° (WNW) 04:21:54 437.305
PCSat 28 May 04:13:26 04:18:54 79° 59° (ENE) 04:24:18 145.827
KKS-1 28 May 04:16:00 04:20:11 43° 71° (ENE) 04:24:23 437.445
CUBESAT XI-V 28 May 04:23:40 04:28:18 61° 74° (ENE) 04:32:58 437.345
STARS 28 May 04:42:43 04:46:40 36° 70° (ENE) 04:50:40 437.465
AO-7 28 May 05:02:35 05:10:58 81° 290° (WNW) 05:19:20 .
BEESAT 2 28 May 05:06:22 05:09:12 19° 112° (ESE) 05:12:05 435.950
ITAMSAT 1 28 May 05:06:33 05:11:29 44° 291° (WNW) 05:16:25 435.822/435.867
AO-85 28 May 05:12:53 05:16:52 45° 308° (NW) 05:20:42 145.980
BEESAT 3 28 May 05:21:33 05:25:30 78° 121° (ESE) 05:29:31 437.485
RS-15 28 May 05:46:34 05:56:54 30° 340° (NNW) 06:07:15 29.354- 29.394
KKS-1 28 May 05:53:54 05:56:56 18° 267° (W) 06:00:00 437.445
O/OREOS (USA 219) 28 May 05:56:28 05:57:31 11° 313° (NW) 05:58:34 437.305
PCSat 28 May 05:58:42 06:01:34 15° 257° (WSW) 06:04:25 145.827
CUBESAT XI-V 28 May 06:03:30 06:06:04 14° 270° (W) 06:08:38 437.345
XW-2D 28 May 06:16:17 06:19:15 21° 94° (E) 06:22:10 145.860 - 145.880
STARS 28 May 06:19:47 06:23:06 21° 266° (W) 06:26:27 437.465
XW-2B 28 May 06:24:05 06:27:18 24° 95° (E) 06:30:28 145.730 - 145.750
SO-50 28 May 06:25:05 06:29:23 41° 50° (NE) 06:33:40 436.795
STRAND 1 28 May 06:26:05 06:30:12 25° 65° (ENE) 06:34:21 437.568
NUDT-PHONESAT 28 May 06:29:30 06:32:29 22° 94° (E) 06:35:26 437.300
XW-2F 28 May 06:35:16 06:38:45 32° 96° (E) 06:42:11 145.980 - 146.000
DOVE 4 28 May 06:36:13 06:40:22 66° 101° (ESE) 06:44:40 437.250
XW-2C 28 May 06:37:33 06:41:08 36° 97° (E) 06:44:41 145.795 - 145.815
KAITUO 1B 28 May 06:40:05 06:43:28 29° 96° (E) 06:46:48 145.475/437.950
BEESAT 2 28 May 06:42:54 06:46:40 41° 309° (NW) 06:50:31 435.950
HO-68 28 May 06:52:44 06:56:45 15° 88° (E) 07:00:45 435.675
AO-7 28 May 06:56:51 07:02:31 21° 311° (NW) 07:08:12 .
BEESAT 3 28 May 07:01:22 07:03:36 14° 321° (NW) 07:05:51 437.485
CUTE-I 28 May 07:13:11 07:18:32 71° 102° (ESE) 07:23:52 437.470
LilacSat-2 28 May 07:17:26 07:21:18 68° 285° (WNW) 07:25:08 437.200
XW-2D 28 May 07:50:06 07:53:26 28° 290° (WNW) 07:56:45 145.860 - 145.880
CUTE 1.7 + AOD 2 28 May 07:51:16 07:55:13 36° 97° (E) 07:59:07 437.475
M-CUBED/EXP-1 PRIME 28 May 07:54:58 07:58:58 46° 68° (ENE) 08:02:42 437.505
NO-84 28 May 07:56:59 08:01:04 39° 132° (SE) 08:05:07 435.350 FM
AAUSAT CUBESAT 2 28 May 07:57:52 07:59:40 12° 90° (E) 08:01:27 437.432
XW-2B 28 May 07:58:15 08:01:24 24° 291° (WNW) 08:04:31 145.730 - 145.750
NUDT-PHONESAT 28 May 08:03:11 08:06:21 26° 291° (WNW) 08:09:30 437.300
STRAND 1 28 May 08:04:21 08:09:08 41° 261° (W) 08:13:59 437.568
RS-15 28 May 08:04:37 08:14:47 28° 16° (NNE) 08:24:40 29.354- 29.394
XW-2A 28 May 08:05:45 08:09:04 43° 99° (E) 08:12:22 145.665 - 145.685
SO-50 28 May 08:06:01 08:09:37 24° 247° (WSW) 08:13:13 436.795
XW-2F 28 May 08:09:55 08:12:40 19° 293° (WNW) 08:15:23 145.980 - 146.000
XW-2C 28 May 08:12:28 08:15:03 17° 294° (WNW) 08:17:36 145.795 - 145.815
KAITUO 1B 28 May 08:14:29 08:17:17 20° 293° (WNW) 08:20:04 145.475/437.950
AO-73 28 May 08:14:42 08:15:23 10° 88° (E) 08:16:03 145.935
DOVE 4 28 May 08:16:04 08:17:35 12° 298° (WNW) 08:19:06 437.250
ZACube-1 28 May 08:27:45 08:30:42 17° 91° (E) 08:33:38 437.345
SEEDS 28 May 08:36:58 08:41:12 76° 102° (ESE) 08:45:23 437.485
HO-68 28 May 08:38:10 08:45:26 87° 106° (ESE) 08:52:38 435.675
CUBEBUG 2 28 May 08:46:43 08:51:20 74° 102° (ESE) 08:56:02 437.445
UWE-3 28 May 08:53:23 08:57:54 53° 100° (E) 09:02:28 435.000/436.395/437.385
CUTE-I 28 May 08:54:38 08:58:00 17° 300° (WNW) 09:01:22 437.470
Oscar 11 28 May 09:19:01 09:23:06 39° 97° (E) 09:27:10 .
CUTE 1.7 + AOD 2 28 May 09:27:37 09:30:49 21° 294° (WNW) 09:33:58 437.475
TIGRISAT 28 May 09:30:10 09:34:01 34° 69° (ENE) 09:37:58 435.000
M-CUBED/EXP-1 PRIME 28 May 09:31:05 09:33:32 15° 261° (W) 09:35:54 437.505
AAUSAT CUBESAT 2 28 May 09:31:25 09:35:28 54° 286° (WNW) 09:39:29 437.432
NO-84 28 May 09:34:36 09:38:43 39° 329° (NNW) 09:42:42 435.350 FM
DELFI C3 28 May 09:35:12 09:37:30 15° 92° (E) 09:39:47 145.870
PRISM 28 May 09:36:23 09:40:26 56° 73° (ENE) 09:44:29 437.425
XW-2A 28 May 09:40:07 09:41:25 12° 295° (WNW) 09:42:44 145.665 - 145.685
FO-29 28 May 09:46:37 09:51:40 58° 72° (ENE) 09:56:58 435.910
AO-73 28 May 09:47:34 09:52:08 80° 284° (WNW) 09:56:43 145.935
UNISAT 6 28 May 10:01:57 10:06:14 82° 75° (ENE) 10:10:37 437.425
ZACube-1 28 May 10:02:48 10:07:13 50° 287° (WNW) 10:11:39 437.345
YUBILEINY 28 May 10:10:11 10:13:32 12° 54° (NE) 10:16:52 435.215
SEEDS 28 May 10:15:16 10:16:15 11° 299° (WNW) 10:17:14 437.485
AIST 2D 28 May 10:16:03 10:17:27 12° 65° (ENE) 10:18:51 435.315
RS-15 28 May 10:18:31 10:30:40 59° 47° (NE) 10:42:12 29.354- 29.394
CUBEBUG 2 28 May 10:25:13 10:27:22 13° 298° (WNW) 10:29:33 437.445
HO-68 28 May 10:27:17 10:32:16 21° 306° (NW) 10:37:13 435.675
UWE-3 28 May 10:30:55 10:33:57 18° 296° (WNW) 10:37:00 435.000/436.395/437.385
EO-88 28 May 10:44:23 10:48:05 72° 102° (ESE) 10:51:45 145.990 - 145.960
NANOSAT C BR1 28 May 10:53:20 10:56:14 19° 65° (ENE) 10:59:09 145.865
Oscar 11 28 May 10:55:47 10:58:58 20° 294° (WNW) 11:02:09 .
POLYITAN 1 28 May 10:59:10 11:02:30 23° 67° (ENE) 11:05:52 437.675
DUCHIFAT 1 28 May 11:02:45 11:05:52 21° 66° (ENE) 11:09:00 145.980
TIGRISAT 28 May 11:07:29 11:10:48 22° 267° (W) 11:14:10 435.000
QB50P2 28 May 11:07:32 11:11:13 31° 69° (ENE) 11:14:56 145.880/145.840
DELFI C3 28 May 11:08:46 11:12:28 41° 288° (WNW) 11:16:09 145.870
PRISM 28 May 11:14:20 11:16:02 12° 269° (W) 11:17:45 437.425
NO-84 28 May 11:14:30 11:17:14 16° 348° (NNW) 11:19:53 435.350 FM
LO-87 28 May 11:21:48 11:24:47 24° 96° (E) 11:27:44 145.935 - 145.965
ESTCUBE 1 28 May 11:27:47 11:31:00 19° 93° (E) 11:34:11 437.505/2401.250
FO-29 28 May 11:34:09 11:37:20 16° 270° (W) 11:40:35 435.910
EO-79 28 May 11:43:25 11:47:35 71° 74° (ENE) 11:51:47 145.935-145.965
AIST 2D 28 May 11:46:52 11:50:14 45° 261° (W) 11:53:40 435.315
AO-85 28 May 12:03:00 12:06:07 21° 45° (NE) 12:09:20 145.980
Oscar 19 28 May 12:03:20 12:06:16 15° 59° (ENE) 12:09:11 437.125/150
YUBILEINY 28 May 12:03:46 12:12:32 60° 77° (ENE) 12:21:13 435.215
VELOX 1 28 May 12:15:42 12:18:16 15° 92° (E) 12:20:49 145.980
NANOSAT C BR1 28 May 12:27:44 12:31:39 40° 261° (W) 12:35:37 145.865
RS-15 28 May 12:31:38 12:42:52 47° 251° (WSW) 12:53:34 29.354- 29.394
POLYITAN 1 28 May 12:34:25 12:38:08 31° 263° (W) 12:41:54 437.675
DUCHIFAT 1 28 May 12:37:30 12:41:18 34° 263° (W) 12:45:09 145.980
O/OREOS (USA 219) 28 May 12:43:18 12:47:04 25° 57° (ENE) 12:50:46 437.305
QB50P2 28 May 12:43:40 12:47:01 23° 266° (W) 12:50:24 145.880/145.840
DX 1 28 May 12:46:19 12:47:17 11° 90° (E) 12:48:16 434.975-435.025
BUGSAT 1 28 May 12:47:25 12:51:25 88° 266° (W) 12:55:27 437.445
NO-84 28 May 12:53:36 12:56:10 16° 10° (N) 12:58:36 435.350 FM
LO-87 28 May 12:55:23 12:58:05 20° 292° (WNW) 13:00:47 145.935 - 145.965
ESTCUBE 1 28 May 13:03:43 13:07:59 42° 289° (WNW) 13:12:12 437.505/2401.250
BEESAT 2 28 May 13:22:36 13:25:30 19° 42° (NE) 13:28:24 435.950
SPROUT 28 May 13:29:47 13:34:04 80° 284° (WNW) 13:38:21 437.525
Gurwin Techsat 1B 28 May 13:33:20 13:38:31 58° 72° (ENE) 13:43:44 435.225
BEESAT 3 28 May 13:37:38 13:41:36 56° 53° (NE) 13:45:31 437.485
Oscar 19 28 May 13:39:43 13:44:55 77° 257° (WSW) 13:50:10 437.125/150
AO-85 28 May 13:42:48 13:46:39 43° 242° (WSW) 13:50:44 145.980
VELOX 1 28 May 13:50:45 13:55:01 51° 288° (WNW) 13:59:14 145.980
50 SAT 28 May 13:53:41 13:57:05 73° 285° (WNW) 14:00:27 437.505
YUBILEINY 28 May 14:01:24 14:08:45 31° 277° (W) 14:16:05 435.215
UKube-1 28 May 14:07:45 14:12:01 58° 101° (E) 14:16:15 .
AO-7 28 May 14:10:54 14:18:08 35° 57° (ENE) 14:25:24 .
DX 1 28 May 14:19:37 14:23:56 71° 286° (WNW) 14:28:14 434.975-435.025
O/OREOS (USA 219) 28 May 14:22:26 14:26:32 35° 255° (WSW) 14:30:35 437.305
NO-84 28 May 14:30:58 14:34:40 39° 31° (NNE) 14:38:03 435.350 FM
ITAMSAT 1 28 May 14:46:09 14:50:57 40° 68° (ENE) 14:55:45 435.822/435.867
BEESAT 2 28 May 14:59:36 15:03:35 54° 241° (WSW) 15:07:30 435.950
Gurwin Techsat 1B 28 May 15:15:12 15:18:50 19° 269° (W) 15:22:30 435.225
BEESAT 3 28 May 15:16:39 15:18:42 14° 251° (WSW) 15:20:46 437.485
MOZHAYETS 4 28 May 15:28:28 15:32:07 22° 93° (E) 15:35:42
ITUPSAT 1 28 May 15:32:00 15:36:33 40° 98° (E) 15:41:04 437.325
UKube-1 28 May 15:45:16 15:47:34 14° 298° (WNW) 15:49:51 .
AO-7 28 May 16:02:25 16:10:32 58° 257° (WSW) 16:18:43 .
BEESAT 28 May 16:03:57 16:08:46 86° 104° (ESE) 16:13:34 436.000
NO-84 28 May 16:08:54 16:12:05 27° 231° (SW) 16:15:02 435.350 FM
CUBESAT XI-V 28 May 16:20:59 16:23:27 14° 90° (E) 16:25:53 437.345
ITAMSAT 1 28 May 16:26:14 16:30:30 26° 265° (W) 16:34:50 435.822/435.867
CUTE-I 28 May 16:58:16 17:01:41 18° 60° (ENE) 17:05:05 437.470
XW-2D 28 May 16:59:35 17:01:11 12° 64° (ENE) 17:02:49 145.860 - 145.880
MOZHAYETS 4 28 May 17:05:03 17:09:22 38° 290° (WNW) 17:13:39
XW-2B 28 May 17:07:01 17:09:09 14° 65° (ENE) 17:11:17 145.730 - 145.750
ITUPSAT 1 28 May 17:10:19 17:14:08 24° 295° (WNW) 17:17:56 437.325
NUDT-PHONESAT 28 May 17:10:56 17:12:27 12° 64° (ENE) 17:13:58 437.300
XW-2F 28 May 17:17:25 17:20:04 18° 67° (ENE) 17:22:44 145.980 - 146.000
XW-2C 28 May 17:19:57 17:22:48 20° 67° (ENE) 17:25:41 145.795 - 145.815
KAITUO 1B 28 May 17:21:30 17:23:57 17° 66° (ENE) 17:26:25 145.475/437.950
HO-68 28 May 17:23:55 17:27:37 15° 50° (NE) 17:31:18 435.675
DOVE 4 28 May 17:42:06 17:46:38 73° 76° (ENE) 17:50:58 437.250
KKS-1 28 May 17:42:07 17:46:34 79° 102° (ESE) 17:51:01 437.445
BEESAT 28 May 17:43:58 17:45:50 12° 301° (WNW) 17:47:42 436.000
CUBESAT XI-V 28 May 17:56:38 18:01:13 60° 286° (WNW) 18:05:45 437.345
LilacSat-2 28 May 17:59:29 18:03:17 63° 74° (ENE) 18:07:07 437.200
STARS 28 May 18:06:50 18:11:12 62° 102° (ESE) 18:15:33 437.465
XW-2D 28 May 18:31:11 18:34:55 53° 261° (W) 18:38:42 145.860 - 145.880
CUTE-I 28 May 18:35:54 18:41:09 68° 258° (WSW) 18:46:28 437.470
XW-2A 28 May 18:38:33 18:40:47 17° 67° (ENE) 18:43:01 145.665 - 145.685
XW-2B 28 May 18:39:19 18:42:57 43° 261° (W) 18:46:39 145.730 - 145.750
NUDT-PHONESAT 28 May 18:42:17 18:45:53 51° 260° (W) 18:49:34 437.300
CUTE 1.7 + AOD 2 28 May 18:44:30 18:48:12 29° 69° (ENE) 18:51:54 437.475
AAUSAT CUBESAT 2 28 May 18:50:18 18:50:52 10° 61° (ENE) 18:51:26 437.432
XW-2F 28 May 18:50:31 18:53:58 33° 263° (W) 18:57:28 145.980 - 146.000
XW-2C 28 May 18:53:27 18:56:49 29° 264° (W) 19:00:13 145.795 - 145.815
KAITUO 1B 28 May 18:54:10 18:57:40 36° 262° (W) 19:01:12 145.475/437.950
PCSat 28 May 18:55:30 19:00:51 63° 116° (ESE) 19:06:14 145.827
HO-68 28 May 19:06:57 19:14:03 70° 70° (ENE) 19:21:13 435.675
Tancredo 1 28 May 19:19:25 19:22:12 32° 138° (SE) 19:25:00 437.200
KKS-1 28 May 19:21:00 19:22:29 12° 300° (WNW) 19:23:58 437.445
DOVE 4 28 May 19:23:54 19:24:45 10° 270° (W) 19:25:35 437.250
ZACube-1 28 May 19:25:06 19:27:19 14° 62° (ENE) 19:29:35 437.345
SEEDS 28 May 19:28:49 19:32:58 56° 74° (ENE) 19:37:09 437.485
STARS 28 May 19:44:45 19:47:01 14° 298° (WNW) 19:49:18 437.465
CUBEBUG 2 28 May 19:45:29 19:49:35 63° 74° (ENE) 19:53:50 437.445
UWE-3 28 May 19:51:03 19:55:03 43° 71° (ENE) 19:59:09 435.000/436.395/437.385
XW-2A 28 May 20:10:26 20:13:20 27° 264° (W) 20:16:15 145.665 - 145.685
ISS 28 May 20:12:39 20:15:56 71° 144° (SE) 20:19:14 437.550
STRAND 1 28 May 20:13:33 20:18:41 63° 102° (ESE) 20:23:47 437.568
Oscar 11 28 May 20:14:20 20:18:13 33° 70° (ENE) 20:22:08 .
CUTE 1.7 + AOD 2 28 May 20:20:24 20:23:59 26° 265° (W) 20:27:36 437.475
AAUSAT CUBESAT 2 28 May 20:21:30 20:25:41 80° 258° (WSW) 20:29:53 437.432
DELFI C3 28 May 20:22:57 20:23:52 11° 62° (ENE) 20:24:45 145.870
PCSat 28 May 20:40:23 20:44:41 23° 315° (NW) 20:49:00 145.827
AO-73 28 May 20:43:22 20:47:36 84° 74° (ENE) 20:51:58 145.935
SO-50 28 May 20:44:22 20:44:32 10° 107° (ESE) 20:44:42 436.795
Tancredo 1 28 May 20:55:06 20:57:56 33° 336° (NNW) 21:00:46 437.200
HO-68 28 May 20:56:55 21:02:21 23° 268° (W) 21:07:51 435.675
ZACube-1 28 May 20:58:55 21:03:04 59° 260° (W) 21:07:23 437.345
SEEDS 28 May 21:06:57 21:09:00 13° 270° (W) 21:11:01 437.485
M-CUBED/EXP-1 PRIME 28 May 21:07:25 21:10:05 23° 101° (ESE) 21:12:44 437.505
EO-88 28 May 21:22:48 21:26:05 33° 71° (ENE) 21:29:25 145.990 - 145.960
CUBEBUG 2 28 May 21:25:26 21:26:41 11° 272° (W) 21:27:56 437.445
UWE-3 28 May 21:29:02 21:31:45 17° 269° (W) 21:34:30 435.000/436.395/437.385
ISS 28 May 21:49:53 21:52:42 25° 342° (NNW) 21:55:30 437.550
Oscar 11 28 May 21:50:56 21:54:24 23° 266° (W) 21:57:53 .
UNISAT 6 28 May 21:53:31 21:56:36 17° 92° (E) 21:59:42 437.425
STRAND 1 28 May 21:53:57 21:57:20 18° 299° (WNW) 22:00:44 437.568
DELFI C3 28 May 21:54:05 21:58:04 69° 259° (W) 22:02:03 145.870
LO-87 28 May 22:00:05 22:01:34 12° 65° (ENE) 22:03:02 145.935 - 145.965
SO-50 28 May 22:19:41 22:24:16 89° 133° (SE) 22:28:51 436.795
ESTCUBE 1 28 May 22:28:04 22:31:22 20° 65° (ENE) 22:34:42 437.505/2401.250
Tancredo 1 28 May 22:32:21 22:34:21 16° 355° (N) 22:36:20 437.200
FO-29 28 May 22:37:32 22:43:59 55° 100° (E) 22:51:10 435.910
M-CUBED/EXP-1 PRIME 28 May 22:42:05 22:44:28 19° 298° (WNW) 22:46:48 437.505
PRISM 28 May 22:51:53 22:55:58 84° 104° (ESE) 23:00:01 437.425
TIGRISAT 28 May 22:56:27 23:01:05 71° 102° (ESE) 23:05:45 435.000
EO-88 28 May 22:57:31 22:59:52 16° 267° (W) 23:02:14 145.990 - 145.960
AIST 2D 28 May 23:12:38 23:14:10 12° 91° (E) 23:15:40 435.315
VELOX 1 28 May 23:13:51 23:16:33 16° 63° (ENE) 23:19:16 145.980
YUBILEINY 28 May 23:15:57 23:18:49 12° 72° (ENE) 23:21:42 435.215
ISS 28 May 23:27:43 23:30:00 17° 2° (N) 23:32:17 437.550
UNISAT 6 28 May 23:29:05 23:33:33 50° 288° (WNW) 23:38:04 437.425
EO-79 28 May 23:29:42 23:30:47 11° 89° (E) 23:31:52 145.935-145.965
LO-87 28 May 23:31:13 23:34:37 44° 261° (W) 23:38:02 145.935 - 145.965
DX 1 28 May 23:42:38 23:44:10 12° 60° (ENE) 23:45:42 434.975-435.025
SO-50 29 May 00:02:36 00:05:22 16° 323° (NW) 00:08:08 436.795
ESTCUBE 1 29 May 00:03:34 00:07:53 43° 262° (W) 00:12:13 437.505/2401.250
Tancredo 1 29 May 00:08:29 00:10:55 21° 16° (NNE) 00:13:20 437.200
NANOSAT C BR1 29 May 00:11:05 00:14:48 29° 96° (E) 00:18:30 145.865
POLYITAN 1 29 May 00:17:50 00:21:50 38° 98° (E) 00:25:50 437.675
DUCHIFAT 1 29 May 00:20:18 00:24:09 32° 97° (E) 00:27:58 145.980
FO-29 29 May 00:23:15 00:28:45 30° 295° (WNW) 00:34:48 435.910
SPROUT 29 May 00:23:22 00:27:36 83° 74° (ENE) 00:31:52 437.525
50 SAT 29 May 00:26:21 00:29:38 41° 72° (ENE) 00:32:54 437.505
QB50P2 29 May 00:26:32 00:30:43 51° 100° (E) 00:34:53 145.880/145.840
BUGSAT 1 29 May 00:29:54 00:31:43 13° 91° (E) 00:33:32 437.445
TIGRISAT 29 May 00:34:53 00:37:11 14° 298° (WNW) 00:39:31 435.000
RS-15 29 May 00:43:50 00:53:48 32° 103° (ESE) 01:03:57 29.354- 29.394
AIST 2D 29 May 00:44:11 00:47:34 40° 287° (WNW) 00:50:55 435.315
VELOX 1 29 May 00:48:16 00:52:35 53° 260° (W) 00:56:55 145.980
UKube-1 29 May 01:02:34 01:06:46 54° 72° (ENE) 01:10:59 .
EO-79 29 May 01:02:44 01:06:58 68° 287° (WNW) 01:11:14 145.935-145.965
ISS 29 May 01:04:13 01:07:14 31° 22° (NNE) 01:10:13 437.550
YUBILEINY 29 May 01:05:11 01:13:47 67° 92° (E) 01:22:28 435.215
DX 1 29 May 01:15:24 01:19:44 75° 257° (WSW) 01:24:05 434.975-435.025
BEESAT 29 May 01:36:11 01:38:27 13° 60° (ENE) 01:40:42 436.000
Tancredo 1 29 May 01:43:55 01:47:00 90° 208° (SSW) 01:50:03 437.200
NANOSAT C BR1 29 May 01:46:53 01:50:24 26° 292° (WNW) 01:53:55 145.865
Gurwin Techsat 1B 29 May 01:49:29 01:53:30 21° 93° (E) 01:57:29 435.225
Oscar 19 29 May 01:50:47 01:55:31 35° 97° (E) 02:00:10 437.125/150
POLYITAN 1 29 May 01:54:12 01:57:21 20° 294° (WNW) 02:00:31 437.675
DUCHIFAT 1 29 May 01:56:18 01:59:38 23° 293° (WNW) 02:02:58 145.980
PCSat 29 May 02:00:57 02:03:24 13° 35° (NE) 02:05:51 145.827
50 SAT 29 May 02:01:33 02:02:42 11° 268° (W) 02:03:50 437.505
BUGSAT 1 29 May 02:03:19 02:07:23 56° 287° (WNW) 02:11:29 437.445
QB50P2 29 May 02:03:32 02:06:05 16° 296° (WNW) 02:08:38 145.880/145.840
MOZHAYETS 4 29 May 02:31:03 02:34:42 24° 66° (ENE) 02:38:24
ITUPSAT 1 29 May 02:39:13 02:43:50 51° 71° (ENE) 02:48:29 437.325
ISS 29 May 02:40:40 02:43:47 42° 221° (SW) 02:46:53 437.550
UKube-1 29 May 02:40:50 02:43:06 14° 269° (W) 02:45:23 .
RS-15 29 May 02:52:56 03:05:07 79° 305° (NW) 03:17:36 29.354- 29.394
O/OREOS (USA 219) 29 May 02:56:37 03:00:16 24° 102° (ESE) 03:03:56 437.305
ITAMSAT 1 29 May 02:59:56 03:02:10 13° 89° (E) 03:04:25 435.822/435.867
YUBILEINY 29 May 03:04:03 03:11:17 28° 294° (WNW) 03:18:36 435.215
BEESAT 29 May 03:10:49 03:15:34 77° 257° (WSW) 03:20:22 436.000
CUBESAT XI-V 29 May 03:24:56 03:27:54 17° 63° (ENE) 03:30:51 437.345
Gurwin Techsat 1B 29 May 03:28:34 03:33:43 51° 290° (WNW) 03:38:50 435.225
Oscar 19 29 May 03:30:16 03:34:43 30° 294° (WNW) 03:39:07 437.125/150
PCSat 29 May 03:42:36 03:47:59 59° 56° (NE) 03:53:19 145.827
